{"data":{"norad_id":66756,"epoch":"2026-05-25T03:47:47.858784Z","epoch_age_seconds":64929,"freshness":"FRESH","line1":"1 66756U 25276CU  26145.15819281  .00007507  00000+0  34857-3 0  9993","line2":"2 66756  97.4210 219.2541 0002852  67.7413 292.4124 15.20296363 26935","mean_motion":15.20296363,"eccentricity":0.0002852,"inclination_deg":97.421,"raan_deg":219.2541,"arg_perigee_deg":67.7413,"mean_anomaly_deg":292.4124,"bstar":0.00034857,"rev_number":2693,"period_min":94.718374327914,"perigee_km":502.98289847002,"apogee_km":506.90900898683,"semimajor_km":6883.0829537284,"source":"CELESTRAK","updated_at":"2026-05-25T13:38:06.453312Z"}}